Reflectivity
-20 -20 -20 -20 -20 -20 -20 -20 -20 -20 2 -20 -20 -20 -20 -15 -20 -20 -20 -20 -20 -20 -20 -20 -20 -20 -20 -20 -20 -20 -20 -20 -20 3 -20 -20 10 -6 -20 5 -18 2 -19
-20 -20 -20 -20 -20 -5 -20 -20 -20 -20 -5 -20 -20 -20 -20 -20 -18 -17 -20 -10 -20 -20 -20 -20 -13 -20 -20 -20 -20 -20 -20 -20 -20 -20 -20 -20 -17 -20 -20 -20 -14 0 4
-20 -20 -20 -9 -20 -2 3 -20 -20 -20 7 -20 -20 2 -20 -20 -20 -20 -20 -20 -20 -20 -20 -20 -20 -9 -7 -20 -20 -20 -20 -20 -20 -20 -20 -20 -20 -8 -20 -20 23 -17 -7
-20 -20 -20 -20 -15 -5 -20 -20 -20 -4 -20 -5 -4 -20 -20 -20 -20 -20 -10 -20 -18 -20 -20 -20 -20 -11 -2 -11 -20 -20 -4 -20 -20 -20 -20 -20 -20 -11 -20 6 -7 -1 -2
-20 -20 -20 4 14 4 -20 -18 3 -20 -20 -20 -20 -20 -20 -20 -20 -20 -20 -20 -7 -20 -20 -20 -20 -20 -4 27 -20 -20 -13 -20 -20 -16 -12 -20 -20 -16 1 15 29 15 -3
-20 -20 -20 17 7 -0 -20 -20 -20 -20 -20 -20 -20 -20 -20 -20 -20 -20 -20 8 -20 -20 -20 -17 -20 -20 18 33 -16 23 2 -20 -20 -20 -20 -20 -20 -5 10 -1 20 -1 -5
-20 -20 -20 16 -17 16 10 -6 4 -16 -20 -20 -20 -20 -20 -20 -20 -20 -20 -20 -20 -20 -20 -20 -13 -10 30 32 20 -14 -17 -20 -20 -20 -20 -20 -5 20 11 -3 21 24 -20
-20 -20 -20 11 17 -20 -6 13 8 -18 -20 -20 -20 -20 -20 -20 -20 -20 -20 -20 -20 -20 -20 -20 2 5 30 37 29 -5 -9 -20 1 -20 7 14 42 39 24 25 20 23 7
-20 -20 -20 7 5 -0 -20 -20 14 -17 -20 -10 -20 -20 -20 -20 -20 -20 7 -20 -20 -20 -20 -20 -18 10 32 37 33 30 -20 31 -8 33 -8 19 28 29 38 36 46 38 39
-20 -20 -20 -20 -20 -20 -20 6 4 -17 -20 -20 -20 -20 -20 -20 -20 -20 -20 3 -10 -20 -20 -20 -4 24 35 35 35 28 -20 17 28 16 -20 29 30 26 12 21 21 22 18
-20 -20 -20 -20 -20 -20 -20 -20 -20 -20 -20 -20 -20 -20 -20 -20 -20 -20 -20 -20 12 -19 -20 -20 3 36 34 36 31 16 29 27 30 30 -12 28 26 13 17 12 13 15 12
-20 -20 -20 -20 -20 -20 -20 -20 -0 -20 -20 -20 -16 -20 -20 -20 -20 -20 -20 -20 35 34 9 -9 7 12 33 28 30 21 21 18 29 28 29 27 24 17 22 19 13 14 14
-20 -20 -20 -20 -20 -20 -20 -20 -4 -3 4 -13 -11 -20 -20 -20 -20 -20 -20 -18 -20 -20 21 32 18 24 33 29 26 27 -5 15 24 26 27 26 19 23 27 26 10 13 14
-20 -20 -20 -20 -20 -20 -20 -20 -20 -20 -20 -1 -16 -20 -20 -14 -20 -14 -20 -10 -17 6 11 24 32 31 31 25 26 21 16 22 17 11 19 7 11 22 -3 1 -2 -6 -20
-20 -20 -20 -20 -20 -20 -20 10 -19 -20 -20 -16 3 -18 -20 -20 -20 -5 0 24 23 20 20 26 20 11 26 12 19 24 20 25 22 27 -3 5 2 -5 -19 -20 -20 -13 -7
-13 -20 6 4 -10 -8 9 -2 -16 -12 -20 -16 4 -19 -20 -20 -20 -20 -7 -17 5 25 23 28 27 20 22 24 29 33 23 22 21 4 -14 33 24 20 26 -17 -20 0 -16
5 -20 2 16 14 9 4 -8 -1 6 -20 -20 -20 -20 -20 -20 -20 -20 -20 -9 18 26 27 30 32 22 24 24 24 24 26 20 21 22 1 -2 12 24 9 22 18 -6 -20
-20 -15 -20 7 16 16 2 -16 -20 -20 -20 -20 -20 -20 -20 -20 -20 -1 0 26 4 6 21 32 33 32 18 20 16 5 -5 10 -17 -18 -20 -20 -15 6 8 -4 3 -13 -14
-20 -10 27 6 19 15 -2 -13 -20 -20 -20 -20 -20 -20 -20 9 -20 -3 -3 -8 -1 16 22 25 27 27 7 19 20 11 25 23 22 20 26 23 25 -3 -19 -16 1 4 13
-10 -12 9 19 22 20 6 6 -20 3 6 -20 -20 -20 -16 5 -17 -20 -20 -20 4 -13 5 20 23 25 29 22 14 27 31 32 16 1 -1 -3 -11 1 -0 9 -16 -20 6
-20 -1 13 3 -9 36 18 9 -20 15 5 3 -4 -20 -20 -20 -13 -10 -20 -20 -20 -20 -20 -20 5 27 25 28 24 23 15 22 13 2 -20 -20 -20 -20 -20 -20 -20 -20 -20
-20 -20 -5 18 14 12 32 8 -14 -4 4 3 -20 -20 -20 -20 -14 11 8 -9 -13 -7 -0 2 -2 20 33 26 21 13 -2 -6 14 6 -3 -12 -8 -20 -20 -20 -20 -20 -20
-20 -20 -9 1 12 15 16 27 12 -2 16 -14 -20 -20 -20 -20 -12 4 9 15 22 9 -13 -7 4 22 21 19 21 10 -19 -12 9 14 16 5 -11 -20 -20 -20 -20 -20 -20
-20 -20 -20 13 18 6 24 16 24 15 -10 -20 -20 -20 -20 -20 -20 -3 1 5 20 13 19 21 22 28 11 26 23 13 4 2 6 1 3 13 9 -3 -12 -20 -20 -20 -20
-20 -20 -20 -20 6 6 9 13 25 16 10 -20 -20 -20 -20 -20 -20 -20 -20 -9 7 -19 -5 2 14 4 20 23 6 24 26 13 3 7 -15 -19 -18 -8 -14 -6 -15 -20 -20
-20 -20 -20 -20 -18 8 4 24 23 19 2 2 -20 -20 -20 -20 -20 -20 -20 -20 -20 -20 -2 10 10 13 3 -19 -20 -1 3 13 13 8 6 1 -3 -6 0 -3 2 2 -5
Wind_Speed
6 13 16 16 16 14 14 12 11 10 9 10 8 7 6 7 8 8 7 6 7 8 9 10 11 10 9 9 10 11 11 10 12 14 14 15 16 19 19 14 17 14 18
11 13 16 15 15 14 13 11 9 9 8 10 9 8 7 7 7 7 7 7 7 8 9 10 12 12 11 11 11 10 12 13 13 13 13 11 14 17 17 17 16 16 19
11 13 11 15 14 11 12 10 9 6 10 9 9 9 8 7 7 8 8 8 8 9 9 10 12 13 12 13 11 11 12 14 13 13 12 6 7 15 19 18 18 20 22
10 12 11 14 15 12 9 9 7 10 9 8 7 8 7 6 7 8 8 7 8 9 9 9 10 10 12 12 11 12 14 15 15 15 7 8 9 17 20 20 20 22 22
9 11 12 16 15 13 10 8 10 10 9 8 8 7 7 7 6 6 7 6 6 7 7 10 13 13 13 12 13 13 14 14 12 9 8 7 6 15 21 21 21 22 22
8 10 15 15 14 14 11 10 11 10 9 8 6 6 6 8 6 6 7 4 4 3 7 10 13 14 15 13 14 14 13 9 4 7 7 10 8 18 21 21 20 22 23
8 11 12 15 14 12 11 12 10 9 9 8 7 6 7 7 7 8 7 5 5 4 7 10 15 13 15 16 15 13 10 8 6 6 6 6 9 20 21 22 23 24 23
8 14 12 13 14 12 9 10 11 7 7 8 6 7 7 6 7 9 8 9 7 6 7 12 16 16 12 13 13 10 7 8 6 6 6 5 18 23 23 25 24 22 22
9 11 11 12 12 14 11 9 8 7 5 7 6 5 5 3 5 7 8 9 9 8 8 12 18 15 16 10 6 8 7 8 8 6 6 5 18 24 25 25 27 25 22
8 7 11 10 8 6 7 9 7 6 4 7 5 7 10 9 5 5 6 8 10 10 14 18 20 22 20 13 8 10 7 10 7 7 6 8 22 27 28 28 28 28 26
5 7 7 10 10 9 9 7 8 9 11 9 8 10 8 4 5 3 5 8 10 13 24 23 23 20 22 16 13 18 11 6 7 7 7 21 25 29 28 28 27 27 26
6 5 4 7 8 7 8 7 8 7 6 5 6 6 6 6 5 4 5 9 14 18 22 26 26 24 16 6 7 13 7 10 9 7 8 24 28 29 28 27 26 25 25
4 3 1 4 4 8 6 4 3 3 3 3 8 6 8 5 4 4 3 3 4 8 8 16 16 10 12 6 9 7 10 9 8 8 12 23 26 28 26 26 24 24 22
4 6 3 5 6 8 5 5 4 3 4 4 5 7 6 4 4 4 4 5 4 8 11 11 9 11 12 11 12 10 12 9 9 8 11 21 23 25 25 24 23 22 20
8 6 5 6 6 5 7 5 5 5 5 4 4 6 5 5 4 5 4 6 5 9 10 10 11 11 12 13 12 12 14 13 14 9 7 18 22 22 22 22 22 21 21
9 9 6 5 5 7 4 7 5 5 7 4 4 7 8 5 6 6 6 6 6 9 10 9 9 10 10 12 13 13 14 13 11 14 9 10 20 21 20 21 21 21 21
7 12 10 7 4 9 6 4 7 7 7 5 4 6 9 7 7 7 6 7 6 8 14 13 8 11 10 9 13 13 12 13 11 12 10 8 10 16 18 20 20 20 20
22 15 11 8 4 9 8 5 3 6 6 5 4 5 8 9 8 8 7 7 7 7 11 11 9 11 9 9 8 9 10 11 13 10 10 9 9 7 13 17 18 18 18
20 20 19 6 5 6 10 6 6 7 7 6 6 6 8 9 9 8 7 7 10 8 9 11 9 10 11 10 10 9 10 10 11 10 11 10 10 9 7 17 14 16 16
20 18 19 17 9 4 8 5 5 6 6 8 7 7 10 9 10 9 8 9 9 10 10 9 14 10 10 11 12 12 10 10 8 8 8 8 7 7 6 8 6 7 15
22 23 20 19 19 15 8 7 6 7 5 6 8 12 11 10 12 10 9 10 10 11 13 14 13 16 9 10 11 11 10 9 9 7 6 5 6 5 7 6 5 5 7
22 23 22 20 18 15 11 8 5 5 3 3 6 10 11 12 12 11 11 10 11 11 14 15 14 10 7 7 8 9 5 4 6 5 4 5 6 5 5 6 6 7 6
24 23 21 21 19 16 15 8 5 7 3 3 5 4 8 13 12 12 12 10 11 11 11 13 13 15 11 3 9 5 5 4 4 3 4 4 5 4 4 5 6 7 6
22 21 21 19 20 16 16 16 13 11 10 4 5 5 8 11 11 13 13 12 12 10 13 12 10 10 9 12 2 3 4 7 5 4 2 2 4 5 5 3 5 5 5
20 20 19 20 20 20 18 17 11 13 9 6 4 9 7 7 8 9 11 13 12 9 12 15 14 11 10 9 5 4 4 4 6 5 4 3 3 3 3 4 4 4 4
20 20 20 22 20 20 19 19 15 13 14 11 9 8 7 7 6 8 8 8 9 10 11 11 10 12 7 9 6 6 7 5 4 5 5 4 4 2 3 4 4 4 4
Wind_Direction
131 143 157 158 159 163 168 168 166 170 176 166 171 172 168 164 164 164 164 165 168 171 172 169 164 153 147 134 123 117 116 112 113 106 107 119 122 124 128 132 107 108 108
127 146 160 160 163 165 169 165 168 171 177 168 176 183 177 182 181 181 176 176 177 187 182 176 173 157 150 142 129 129 123 112 105 104 106 119 130 130 126 114 109 112 109
125 144 161 163 165 161 163 163 164 199 164 170 184 182 185 183 190 188 184 187 189 193 187 179 180 164 154 138 137 134 132 122 118 120 119 117 117 130 124 112 116 113 108
132 145 158 161 168 167 155 166 174 157 161 175 167 175 175 190 194 189 188 197 194 188 181 176 172 165 151 139 141 144 137 133 140 148 130 125 128 128 125 122 121 115 109
135 150 150 166 169 164 143 154 158 153 154 171 174 180 182 181 185 179 183 189 194 184 175 175 167 163 162 152 147 149 148 149 157 163 117 122 123 135 132 128 119 113 109
145 153 139 169 170 168 147 136 144 152 155 171 183 195 201 188 190 173 142 120 74 143 173 181 176 172 159 158 150 156 158 142 159 106 104 128 139 146 135 127 121 115 110
157 120 147 170 173 172 155 144 147 156 159 172 187 198 209 197 190 176 168 136 156 142 170 184 172 179 161 162 156 156 138 144 116 101 119 143 154 143 135 127 119 112 105
155 138 151 170 173 174 168 145 136 138 161 181 194 209 218 197 191 200 179 170 154 172 192 180 173 149 153 164 154 137 126 132 98 95 111 107 140 121 111 111 103 98 105
148 136 147 172 174 173 176 174 165 162 193 180 192 206 223 207 191 225 188 184 176 161 187 161 144 164 162 153 133 121 119 118 85 84 85 94 113 110 111 104 118 114 115
136 150 155 166 172 171 166 165 143 148 152 128 140 127 120 118 134 185 215 212 188 178 128 133 142 153 131 106 130 105 101 99 87 92 81 107 109 101 98 99 99 99 97
143 165 168 165 171 176 162 162 151 136 125 128 130 143 142 115 77 7 238 218 179 174 139 135 127 113 91 89 70 79 83 74 90 90 94 109 105 100 97 95 93 93 93
179 172 192 172 169 155 131 154 135 137 157 151 143 177 94 79 68 19 277 187 174 158 156 149 129 111 94 92 87 76 84 82 74 82 107 104 102 97 95 95 94 93 93
186 147 245 150 176 110 119 114 124 163 112 97 100 90 82 67 47 39 43 55 96 152 168 154 118 110 107 105 94 87 92 81 85 78 85 97 101 100 97 95 94 94 92
197 156 165 257 121 117 122 131 129 123 104 84 96 96 90 81 51 59 67 74 75 105 111 104 111 114 110 103 100 95 95 96 92 84 69 83 92 97 98 99 97 94 93
183 159 184 245 153 139 139 142 143 120 106 110 102 100 107 101 90 84 71 85 80 101 99 103 118 118 108 106 104 105 99 93 93 96 88 86 87 90 97 98 97 97 99
178 162 178 242 221 146 161 139 131 105 121 126 128 128 117 108 110 101 95 95 100 107 98 95 104 102 100 112 104 101 94 94 97 96 90 96 99 102 95 98 104 105 105
190 160 174 219 246 149 129 116 139 131 122 125 104 86 123 108 100 110 98 91 90 100 109 96 83 97 94 99 107 101 101 95 91 93 94 79 78 87 101 106 104 108 105
9 335 161 194 261 142 142 112 104 128 135 128 127 113 110 118 114 105 108 102 99 112 108 107 110 101 91 87 90 97 96 102 97 86 85 78 62 53 86 100 101 104 107
6 358 350 181 238 149 142 143 153 144 140 143 134 128 126 122 123 121 123 125 125 116 112 114 102 104 96 85 70 66 82 75 70 68 59 74 76 66 63 72 85 99 100
2 5 1 348 291 182 143 154 147 145 157 149 142 138 137 132 126 127 129 132 131 126 122 109 108 91 96 95 84 65 57 67 64 66 64 71 76 75 68 69 47 82 98
5 2 2 346 338 335 158 165 153 166 170 155 148 144 141 137 136 138 135 134 136 136 130 122 116 113 104 115 98 72 59 53 65 65 61 60 58 66 68 74 67 58 54
2 356 353 349 340 333 317 166 157 159 153 138 129 150 148 143 141 143 144 142 136 131 125 129 132 129 118 150 127 117 99 43 35 52 71 79 72 61 62 65 84 78 71
359 355 348 342 336 328 325 287 147 138 127 106 142 141 144 145 149 146 148 148 145 136 133 134 140 142 152 162 163 136 135 148 138 13 57 93 99 86 75 75 74 88 96
353 348 347 344 340 335 331 323 180 166 169 166 155 142 147 147 150 156 154 154 151 147 148 149 152 161 149 147 110 44 93 132 142 136 349 86 124 124 123 97 85 96 92
355 352 348 348 343 342 337 335 233 170 169 146 148 146 146 148 141 148 159 159 156 156 160 159 164 168 167 156 145 138 83 92 121 134 144 178 86 121 119 114 114 96 105
357 357 353 352 349 347 340 338 319 186 163 159 158 161 157 151 149 149 151 148 153 155 164 162 158 159 150 137 132 139 151 151 163 142 122 135 131 111 103 109 124 123 122